Simultaneous Nadir Overpasses (SNOs) Predictions

Prediction of SNOs between AURA and NPP Satellite Orbit:

Table of predicted SNOs for the next 14.0 days since TLE Epoch: 2/21/2013
Index Date (AURA) Time (AURA) Lat,Lon (AURA) SZA (AURA ) Date (NPP) Time (NPP) Lat,Lon (NPP) SZA (NPP ) Distance(km) Time Diff (sec)
1 02/22/2013 20:48:08 -79.75, -53.25 77.68 02/22/2013 20:47:38 -79.75, -53.29 77.65 0.99 30
2 02/22/2013 21:37:28 79.97, 116.11 101.98 02/22/2013 21:38:15 79.97, 116.14 101.94 0.59 47
3 02/25/2013 13:04:36 -79.85, 63.39 78.82 02/25/2013 13:04:33 -79.85, 63.43 78.83 0.80 3
4 02/25/2013 13:53:30 80.86,-118.95 99.39 02/25/2013 13:54:44 80.71,-118.67 99.30 17.81 74
5 02/28/2013 04:31:43 79.71, 10.56 100.40 02/28/2013 04:30:50 79.72, 10.62 100.42 1.30 53
6 02/28/2013 05:21:05 -79.90, 179.64 79.91 02/28/2013 05:21:30 -79.90, 179.60 79.92 0.73 25
7 03/02/2013 20:48:10 79.82, 127.23 99.21 03/02/2013 20:47:45 79.83, 127.37 99.20 2.99 25
8 03/02/2013 21:37:33 -79.97, -63.94 81.04 03/02/2013 21:38:26 -79.97, -63.90 81.09 0.90 53
9 03/05/2013 12:15:18 -79.62, 74.01 81.53 03/05/2013 12:14:05 -79.62, 73.96 81.46 0.92 73




NCC Satellite Simultaneous Nadir Overpasses (SNOs) Prediction Service
